Tracking 28895 objects as of 28-May-2024
HD Live streaming from Space Station
objects crossing your sky now

SHIYAN 22B (SY-22B)

Track SHIYAN 22B (SY-22B) now!
10-day predictions


NORAD ID: 55243
Int'l Code: 2023-006B
Perigee: 469.1 km
Apogee: 494.9 km
Inclination: 43.2 °
Period: 94.1 minutes
Semi major axis: 6852 km
RCS: Unknown
Launch date: January 13, 2023
Source: People's Republic of China (PRC)
Launch site: Jiuquan Satellite Launch Center, China (JSC)
Your satellite tracking list
Your tracking list is empty




NASA's NSSDC Master Catalog

Two Line Element Set (TLE):
1 55243U 23006B   24148.87490168  .00016409  00000-0  55336-3 0  9997
2 55243  43.1877 289.6542 0018865 277.6316  82.2397 15.30318934 76312
Source of the keplerian elements: AFSPC